Погода в Караичном

Россия / Белгородская область     50°36′51″N   37°12′50″E
темп.,
°C
ветер,
м/с
пор.,
м/с
влажн.,
%
обл.,
%
осадки,
мм/ч
давл.,
гПа
погр.,
м
17 апреля, сб
сб1700:00+7ю3776100 0.0 1018182
03:00+7ю139087 1.1 1018183
06:00+6ююв2489100 0.1 101885
09:00+8юз457115 0.1 1018678
12:00+11ююз565269 0.0 10181718
15:00+9юз5658100 0.1 10191373
18:00+8ююз466767 0.1 1019977
21:00+6юз488297 0.1 1020674
18 апреля, вс
вс1800:00+6юз4883100 0.1 1020747
03:00+6ююз138591 0.1 1020163
06:00+6ю3685100 0.1 1020358
09:00+7ю2475100 0.1 1020483
12:00+11ю465890 0.1 10191098
15:00+13ююз4747100 0.1 10181869
18:00+13юв2349100 0.0 1017134
21:00+10юв41062100 0.1 1018223
19 апреля, пн
пн1900:00+9юв4966100 0.1 1017196
03:00+8вюв3673100 0.1 1017108
06:00+7вюв238099 0.0 101755
09:00+11ююв586992 0.0 1017642
12:00+13юв6660100 0.8 10161312
15:00+14юв765975 1.1 10151413
18:00+11юв676763 0.0 1015979
21:00+8в4782100 0.0 1015399
20 апреля, вт
вт2000:00+9в4784100 0.0 1013610
03:00+9всв5890100 0.0 1010488
06:00+9всв61294100 0.0 1007570
09:00+10всв71595100 4.6 1003704
12:00+11вюв112194100 8.9 9971304
15:00+14ю9138331 10.0 996784
18:00+14ююз9137051 0.4 9971107
21:00+10ю7128496 2.1 998697
21 апреля, ср
ср2100:00+9ю71285100 1.1 9991222
03:00+6з71192100 1.9 1003931
06:00+7юз61288100 0.1 1007964
09:00+9юз71077100 0.2 1011892
12:00+10юз7965100 0.1 10131372
15:00+13юз795071 0.1 10141910
18:00+13юз585449 0.0 1015753
21:00+10ю4106596 0.0 1017249